Home   Weather   Columbus Park   Past weeks
Flag for USA

Past Weather in Columbus Park, Connecticut, USA — Yesterday and Last 2 Weeks

Now
41 °F

Sunny.


Feels Like: 35 °F
Forecast: 49 / 35 °F
Wind: 10 mph from Northwest

Location: Groton / New London Airport

Current Time: Nov 21, 2019 at 9:23:45 am

Latest Report: Nov 21, 2019 at 8:56 am


Visibility: 10 mi

Pressure: 30.16 "Hg

Humidity: 70%

Dew Point: 32 °F

Location of Columbus ParkLocation

Past Weather in Columbus Park — Graph

°F

Columbus Park Temperature Yesterday

Maximum temperature yesterday: 41 °F (at 12:56 am)
Minimum temperature yesterday: 35 °F (at 10:56 pm)
Average temperature yesterday: 38 °F

High & Low Weather Summary for the Past Weeks

 TemperatureHumidityPressure
High62 °F (Nov 11, 12:56 pm)100% (Nov 11, 5:56 pm)30.48 "Hg (Nov 11, 5:56 pm)
Low20 °F (Nov 14, 2:56 am)13% (Nov 16, 2:56 pm)29.65 "Hg (Nov 18, 8:56 pm)
Average40 °F69%30.08 "Hg
* Reported Nov 6 7:56 am — Nov 21 7:56 am, Columbus Park. Weather by CustomWeather, © 2019

Note: Actual official high and low records may vary slightly from our data, if they occured in-between our weather recording intervals... More about our weather records

Advertising

Columbus Park Weather History for the Previous 24 Hours

Scroll right to see more
 ConditionsComfort  
Time TempWeatherWind HumidityBarometerVisibility
7:56 am
Thu, Nov 21
36 °FSunny.9 mph82%30.14 "Hg10 mi
6:56 am33 °FSunny.6 mph92%30.13 "Hg10 mi
5:56 am34 °FClear.9 mph88%30.12 "Hg10 mi
4:56 am34 °FClear.8 mph88%30.10 "Hg10 mi
3:56 am34 °FClear.10 mph88%30.07 "Hg10 mi
2:56 am34 °FClear.7 mph88%30.07 "Hg10 mi
1:56 am35 °FPassing clouds.9 mph85%30.06 "Hg10 mi
12:56 am36 °FOvercast.12 mph85%30.04 "Hg10 mi
11:56 pm
Wed, Nov 20
35 °FOvercast.12 mph92%30.04 "Hg10 mi
10:56 pm35 °FMostly cloudy.9 mph92%30.03 "Hg10 mi
9:56 pm36 °FOvercast.12 mph92%30.02 "Hg10 mi
8:56 pm36 °FMostly cloudy.10 mph97%30.02 "Hg10 mi
7:56 pm36 °FMostly cloudy.12 mph100%30.00 "Hg10 mi
6:56 pm36 °FOvercast.13 mph100%29.98 "Hg10 mi
5:56 pm36 °FMostly cloudy.13 mph100%29.96 "Hg10 mi
5:18 pm37 °FMostly cloudy.13 mph100%29.94 "Hg10 mi
4:56 pm38 °FLight rain. Overcast.9 mph100%29.93 "Hg10 mi
4:35 pm38 °FLight rain. Mostly cloudy.7 mph100%29.93 "Hg10 mi
3:56 pm39 °FLight rain. Cloudy.10 mph100%29.91 "Hg10 mi
3:05 pm39 °FMostly cloudy.10 mph100%29.91 "Hg10 mi
2:56 pm39 °FCloudy.12 mph100%29.90 "Hg10 mi
2:34 pm39 °FLight rain. Cloudy.10 mph100%29.89 "Hg10 mi
2:19 pm39 °FMostly cloudy.9 mph100%29.89 "Hg10 mi
2:06 pm39 °FMostly cloudy.8 mph100%29.89 "Hg10 mi
1:56 pm39 °FLight rain. More clouds than sun.8 mph100%29.88 "Hg10 mi
1:03 pm39 °FLight rain. Mostly cloudy.9 mph100%29.89 "Hg10 mi
12:56 pm39 °FLight rain. Mostly cloudy.10 mph100%29.89 "Hg10 mi
11:56 am39 °FLight rain. Overcast.12 mph100%29.88 "Hg7 mi
10:56 am39 °FMostly cloudy.8 mph100%29.88 "Hg10 mi
9:56 am40 °FLight rain. Mostly cloudy.9 mph100%29.88 "Hg10 mi
9:36 am39 °FLight rain. Mostly cloudy.9 mph100%29.88 "Hg10 mi
9:19 am39 °FLight rain. Mostly cloudy.10 mph100%29.88 "Hg10 mi
Weather by CustomWeather, © 2019

See weather overview